Starlink 1433

operational
NORAD ID: 45711 Int'l Des: 2020-035 Owner: SPXS Country: US Constellation: starlink
LEOCIRCULAR

Starlink 1433について

説明を読み込み中...

リアルタイム位置

3D地球を読み込み中...

次回通過

高度履歴

Altitude vs Time

uPlot chart will show altitude changes over time

軌道要素

1 45711U 20035BG 26062.50738083 .00106907 00000-0 16426-2 0 9992
2 45711 53.0513 50.9056 0006991 73.3779 286.7998 15.53426754318400
Epoch: Mar 3, 2026 • Age: 22 hours

現在のステータス

高度 407.2 km
速度 7.68 km/s
衛星直下点 48.18°N, 22°W
打ち上げ日 Jun 4, 2020
運用期間 5.7 years
タイプ internet

技術仕様

分類 Payload
質量 260.00 kg
乾燥質量 248.00 kg
総質量 260.00 kg
長さ 0.20 m
直径 2.80 m
スパン 9.00 m
形状 Box + pan
製造者 SPXS
バスタイプ Starlink
フェーズステータス In Orbit
所有者/国 SPXS/US

大規模コンステレーション

Loading constellations...